Time,TemperatureF,DewpointF,PressureIn,WindDirection,WindDirectionDegrees,WindSpeedMPH,WindSpeedGustMPH,Humidity,HourlyPrecipIn,Conditions,Clouds,dailyrainin,SoftwareType,DateUTC
2013-05-09 00:02:00,55.0,55.0,29.97,NNE,30,6.0,-999.0,100,-99.99,,,-99.99,,2013-05-09 05:02:00,
2013-05-09 00:12:00,55.0,55.0,29.97,NNE,30,5.0,-999.0,100,-99.99,,,-99.99,,2013-05-09 05:12:00,
2013-05-09 00:22:00,55.0,55.0,29.97,NNE,30,5.0,-999.0,100,-99.99,,,-99.99,,2013-05-09 05:22:00,
2013-05-09 00:32:00,55.0,55.0,29.97,North,10,6.0,-999.0,100,-99.99,,,-99.99,,2013-05-09 05:32:00,
2013-05-09 00:42:00,55.0,55.0,29.97,North,10,6.0,-999.0,100,-99.99,,,-99.99,,2013-05-09 05:42:00,
2013-05-09 00:51:00,55.0,55.0,29.97,North,10,6.0,-999.0,100,-99.99,,,-99.99,,2013-05-09 05:51:00,
2013-05-09 01:02:00,55.0,55.0,29.97,North,10,6.0,-999.0,100,-99.99,,,-99.99,,2013-05-09 06:02:00,
2013-05-09 01:11:00,55.0,55.0,29.97,NNE,20,6.0,-999.0,100,-99.99,,,-99.99,,2013-05-09 06:11:00,
2013-05-09 01:21:00,55.0,55.0,29.97,NNE,20,6.0,-999.0,100,-99.99,,,-99.99,,2013-05-09 06:21:00,
2013-05-09 01:32:00,55.0,55.0,29.98,North,0,0.0,-999.0,100,-99.99,,,-99.99,,2013-05-09 06:32:00,
2013-05-09 01:42:00,55.0,55.0,29.98,North,0,0.0,-999.0,100,-99.99,,,-99.99,,2013-05-09 06:42:00,
2013-05-09 01:52:00,55.0,55.0,29.98,NNE,30,6.0,-999.0,100,-99.99,,,-99.99,,2013-05-09 06:52:00,
2013-05-09 02:01:00,55.0,55.0,29.98,NNE,30,6.0,-999.0,100,-99.99,,,-99.99,,2013-05-09 07:01:00,
2013-05-09 02:12:00,55.0,55.0,29.98,NNE,30,6.0,-999.0,100,-99.99,,,-99.99,,2013-05-09 07:12:00,
2013-05-09 02:21:00,55.0,55.0,29.98,NNE,30,6.0,-999.0,100,-99.99,,,-99.99,,2013-05-09 07:21:00,
2013-05-09 02:32:00,55.0,55.0,29.97,North,0,0.0,-999.0,100,-99.99,,,-99.99,,2013-05-09 07:32:00,
2013-05-09 02:43:00,55.0,55.0,29.97,North,0,0.0,-999.0,100,-99.99,,,-99.99,,2013-05-09 07:43:00,
2013-05-09 02:52:00,55.0,55.0,29.97,NNE,20,6.0,-999.0,100,-99.99,,,-99.99,,2013-05-09 07:52:00,
2013-05-09 03:02:00,55.0,55.0,29.97,NNE,20,6.0,-999.0,100,-99.99,,,-99.99,,2013-05-09 08:02:00,
2013-05-09 03:11:00,55.0,55.0,29.96,North,10,8.0,-999.0,100,-99.99,,,-99.99,,2013-05-09 08:11:00,
2013-05-09 03:21:00,55.0,55.0,29.96,North,10,8.0,-999.0,100,-99.99,,,-99.99,,2013-05-09 08:21:00,
2013-05-09 03:32:00,55.0,55.0,29.96,NNE,20,5.0,-999.0,100,-99.99,,,-99.99,,2013-05-09 08:32:00,
2013-05-09 03:42:00,55.0,55.0,29.96,NNE,20,5.0,-999.0,100,-99.99,,,-99.99,,2013-05-09 08:42:00,
2013-05-09 03:51:00,55.0,55.0,29.96,North,10,8.0,-999.0,100,-99.99,,,-99.99,,2013-05-09 08:51:00,
2013-05-09 04:02:00,55.0,55.0,29.96,North,10,8.0,-999.0,100,-99.99,,,-99.99,,2013-05-09 09:02:00,
2013-05-09 04:11:00,55.0,55.0,29.96,North,10,8.0,-999.0,100,-99.99,,,-99.99,,2013-05-09 09:11:00,
2013-05-09 04:21:00,55.0,55.0,29.96,North,10,8.0,-999.0,100,-99.99,,,-99.99,,2013-05-09 09:21:00,
2013-05-09 04:32:00,55.0,55.0,29.96,North,10,5.0,-999.0,100,-99.99,,,-99.99,,2013-05-09 09:32:00,
2013-05-09 04:43:00,55.0,55.0,29.96,North,10,5.0,-999.0,100,-99.99,,,-99.99,,2013-05-09 09:43:00,
2013-05-09 04:53:00,55.0,55.0,29.95,NNE,20,6.0,-999.0,100,-99.99,,,-99.99,,2013-05-09 09:53:00,
2013-05-09 05:02:00,55.0,55.0,29.95,NNE,20,6.0,-999.0,100,-99.99,,,-99.99,,2013-05-09 10:02:00,
2013-05-09 05:12:00,55.0,55.0,29.95,NNE,20,6.0,-999.0,100,-99.99,,,-99.99,,2013-05-09 10:12:00,
2013-05-09 05:22:00,55.0,55.0,29.95,NNE,20,6.0,-999.0,100,-99.99,,,-99.99,,2013-05-09 10:22:00,
2013-05-09 05:33:00,55.0,55.0,29.94,North,360,14.0,-999.0,100,-99.99,,,-99.99,,2013-05-09 10:33:00,
2013-05-09 05:42:00,55.0,55.0,29.94,North,360,14.0,-999.0,100,-99.99,,,-99.99,,2013-05-09 10:42:00,
2013-05-09 05:52:00,55.0,55.0,29.94,North,10,10.0,17.0,100,-99.99,,,-99.99,,2013-05-09 10:52:00,
2013-05-09 06:02:00,55.0,55.0,29.94,North,10,10.0,17.0,100,-99.99,,,-99.99,,2013-05-09 11:02:00,
2013-05-09 06:12:00,55.0,55.0,29.94,North,10,10.0,17.0,100,-99.99,,,-99.99,,2013-05-09 11:12:00,
2013-05-09 06:22:00,55.0,55.0,29.94,North,10,10.0,17.0,100,-99.99,,,-99.99,,2013-05-09 11:22:00,
2013-05-09 06:32:00,55.0,55.0,29.95,North,360,14.0,-999.0,100,-99.99,,,-99.99,,2013-05-09 11:32:00,
2013-05-09 06:42:00,55.0,55.0,29.95,North,360,14.0,-999.0,100,-99.99,,,-99.99,,2013-05-09 11:42:00,
2013-05-09 06:52:00,55.0,55.0,29.96,North,350,10.0,17.0,100,-99.99,,,-99.99,,2013-05-09 11:52:00,
2013-05-09 07:01:00,55.0,55.0,29.96,North,350,10.0,17.0,100,-99.99,,,-99.99,,2013-05-09 12:01:00,
2013-05-09 07:11:00,55.0,55.0,29.96,North,350,10.0,17.0,100,-99.99,,,-99.99,,2013-05-09 12:11:00,
2013-05-09 07:22:00,55.0,55.0,29.96,North,350,10.0,17.0,100,-99.99,,,-99.99,,2013-05-09 12:22:00,
2013-05-09 07:31:00,55.0,55.0,29.98,North,350,10.0,15.0,100,-99.99,,,-99.99,,2013-05-09 12:31:00,
2013-05-09 07:42:00,55.0,55.0,29.98,North,350,10.0,15.0,100,-99.99,,,-99.99,,2013-05-09 12:42:00,
2013-05-09 07:52:00,55.0,55.0,29.98,North,10,10.0,15.0,100,-99.99,,,-99.99,,2013-05-09 12:52:00,
2013-05-09 08:01:00,55.0,55.0,29.98,North,10,10.0,15.0,100,-99.99,,,-99.99,,2013-05-09 13:01:00,
2013-05-09 08:12:00,55.0,55.0,29.98,North,10,10.0,15.0,100,-99.99,,,-99.99,,2013-05-09 13:12:00,
2013-05-09 08:21:00,55.0,55.0,29.98,North,10,10.0,15.0,100,-99.99,,,-99.99,,2013-05-09 13:21:00,
2013-05-09 08:32:00,55.0,55.0,29.98,North,350,13.0,21.0,100,-99.99,,,-99.99,,2013-05-09 13:32:00,
2013-05-09 08:42:00,55.0,55.0,29.98,North,350,13.0,21.0,100,-99.99,,,-99.99,,2013-05-09 13:42:00,
2013-05-09 08:52:00,55.0,55.0,29.99,North,350,13.0,18.0,100,-99.99,,,-99.99,,2013-05-09 13:52:00,
2013-05-09 09:01:00,55.0,55.0,29.99,North,350,13.0,18.0,100,-99.99,,,-99.99,,2013-05-09 14:01:00,
2013-05-09 09:11:00,55.0,55.0,29.99,North,350,13.0,18.0,100,-99.99,,,-99.99,,2013-05-09 14:11:00,
2013-05-09 09:21:00,55.0,55.0,29.99,North,350,13.0,18.0,100,-99.99,,,-99.99,,2013-05-09 14:21:00,
2013-05-09 09:32:00,55.0,55.0,29.99,North,350,14.0,22.0,100,-99.99,,,-99.99,,2013-05-09 14:32:00,
2013-05-09 09:42:00,55.0,55.0,29.99,North,350,14.0,22.0,100,-99.99,,,-99.99,,2013-05-09 14:42:00,
2013-05-09 09:52:00,55.0,55.0,30.00,North,360,18.0,24.0,100,-99.99,,,-99.99,,2013-05-09 14:52:00,
2013-05-09 10:01:00,55.0,55.0,30.00,North,360,18.0,24.0,100,-99.99,,,-99.99,,2013-05-09 15:01:00,
2013-05-09 10:11:00,55.0,55.0,30.00,North,360,18.0,24.0,100,-99.99,,,-99.99,,2013-05-09 15:11:00,
2013-05-09 10:22:00,55.0,55.0,30.00,North,360,18.0,24.0,100,-99.99,,,-99.99,,2013-05-09 15:22:00,
2013-05-09 10:33:00,55.0,55.0,30.00,North,350,15.0,24.0,100,-99.99,,,-99.99,,2013-05-09 15:33:00,
2013-05-09 10:43:00,55.0,55.0,30.00,North,350,15.0,24.0,100,-99.99,,,-99.99,,2013-05-09 15:43:00,
2013-05-09 10:53:00,55.0,55.0,30.00,North,10,17.0,23.0,100,-99.99,,,-99.99,,2013-05-09 15:53:00,
2013-05-09 11:03:00,55.0,55.0,30.00,North,10,17.0,23.0,100,-99.99,,,-99.99,,2013-05-09 16:03:00,
2013-05-09 11:12:00,55.0,55.0,30.00,North,10,17.0,23.0,100,-99.99,,,-99.99,,2013-05-09 16:12:00,
2013-05-09 11:22:00,55.0,55.0,30.00,North,10,17.0,23.0,100,-99.99,,,-99.99,,2013-05-09 16:22:00,
2013-05-09 11:33:00,55.0,55.0,30.01,North,360,16.0,27.0,100,-99.99,,,-99.99,,2013-05-09 16:33:00,
2013-05-09 11:42:00,55.0,55.0,30.01,North,360,16.0,27.0,100,-99.99,,,-99.99,,2013-05-09 16:42:00,
2013-05-09 11:53:00,57.0,55.0,30.01,North,360,21.0,-999.0,93,-99.99,,,-99.99,,2013-05-09 16:53:00,
2013-05-09 12:02:00,57.0,55.0,30.01,North,360,21.0,-999.0,93,-99.99,,,-99.99,,2013-05-09 17:02:00,
2013-05-09 12:12:00,55.0,55.0,30.01,North,350,21.0,28.0,100,-99.99,,,-99.99,,2013-05-09 17:12:00,
2013-05-09 12:21:00,55.0,55.0,30.01,North,350,21.0,28.0,100,-99.99,,,-99.99,,2013-05-09 17:21:00,
2013-05-09 12:32:00,55.0,55.0,30.01,North,360,20.0,27.0,100,-99.99,,,-99.99,,2013-05-09 17:32:00,
2013-05-09 12:42:00,55.0,55.0,30.01,North,360,20.0,27.0,100,-99.99,,,-99.99,,2013-05-09 17:42:00,
2013-05-09 12:55:00,55.0,55.0,30.01,North,360,20.0,28.0,100,-99.99,,,-99.99,,2013-05-09 17:55:00,
2013-05-09 13:01:00,55.0,55.0,30.01,North,360,20.0,28.0,100,-99.99,,,-99.99,,2013-05-09 18:01:00,
2013-05-09 13:12:00,57.0,55.0,30.01,North,350,18.0,25.0,93,-99.99,,,-99.99,,2013-05-09 18:12:00,
2013-05-09 13:21:00,57.0,55.0,30.01,North,350,18.0,25.0,93,-99.99,,,-99.99,,2013-05-09 18:21:00,
2013-05-09 13:32:00,57.0,55.0,30.01,North,350,16.0,24.0,93,-99.99,,,-99.99,,2013-05-09 18:32:00,
2013-05-09 13:42:00,57.0,55.0,30.01,North,350,16.0,24.0,93,-99.99,,,-99.99,,2013-05-09 18:42:00,
2013-05-09 13:52:00,57.0,55.0,30.01,North,360,18.0,23.0,93,-99.99,,,-99.99,,2013-05-09 18:52:00,
2013-05-09 14:01:00,57.0,55.0,30.01,North,360,18.0,23.0,93,-99.99,,,-99.99,,2013-05-09 19:01:00,
2013-05-09 14:11:00,57.0,55.0,30.01,North,10,17.0,29.0,93,-99.99,,,-99.99,,2013-05-09 19:11:00,
2013-05-09 14:21:00,57.0,55.0,30.01,North,10,17.0,29.0,93,-99.99,,,-99.99,,2013-05-09 19:21:00,
2013-05-09 14:31:00,59.0,55.0,30.02,NNE,20,14.0,24.0,87,-99.99,,,-99.99,,2013-05-09 19:31:00,
2013-05-09 14:41:00,59.0,55.0,30.02,NNE,20,14.0,24.0,87,-99.99,,,-99.99,,2013-05-09 19:41:00,
2013-05-09 14:52:00,59.0,55.0,30.02,North,10,14.0,27.0,87,-99.99,,,-99.99,,2013-05-09 19:52:00,
2013-05-09 15:01:00,59.0,55.0,30.02,North,10,14.0,27.0,87,-99.99,,,-99.99,,2013-05-09 20:01:00,
2013-05-09 15:11:00,61.0,54.0,30.02,NNE,30,15.0,21.0,77,-99.99,,,-99.99,,2013-05-09 20:11:00,
2013-05-09 15:22:00,61.0,54.0,30.02,NNE,30,15.0,21.0,77,-99.99,,,-99.99,,2013-05-09 20:22:00,
2013-05-09 15:32:00,61.0,55.0,30.02,NNE,20,12.0,20.0,82,-99.99,,,-99.99,,2013-05-09 20:32:00,
2013-05-09 15:42:00,61.0,55.0,30.02,NNE,20,12.0,20.0,82,-99.99,,,-99.99,,2013-05-09 20:42:00,
2013-05-09 15:52:00,61.0,54.0,30.02,NNE,30,14.0,21.0,77,-99.99,,,-99.99,,2013-05-09 20:52:00,
2013-05-09 16:02:00,61.0,54.0,30.02,NNE,30,14.0,21.0,77,-99.99,,,-99.99,,2013-05-09 21:02:00,
2013-05-09 16:11:00,63.0,54.0,30.02,NNE,30,15.0,23.0,72,-99.99,,,-99.99,,2013-05-09 21:11:00,
2013-05-09 16:22:00,63.0,54.0,30.02,NNE,30,15.0,23.0,72,-99.99,,,-99.99,,2013-05-09 21:22:00,
2013-05-09 16:32:00,63.0,55.0,30.02,NNE,20,14.0,23.0,77,-99.99,,,-99.99,,2013-05-09 21:32:00,
2013-05-09 16:43:00,63.0,55.0,30.02,NNE,20,14.0,23.0,77,-99.99,,,-99.99,,2013-05-09 21:43:00,
2013-05-09 16:52:00,63.0,55.0,30.02,North,10,14.0,20.0,77,-99.99,,,-99.99,,2013-05-09 21:52:00,
2013-05-09 17:03:00,63.0,55.0,30.02,North,10,14.0,20.0,77,-99.99,,,-99.99,,2013-05-09 22:03:00,
2013-05-09 17:12:00,63.0,55.0,30.02,North,10,14.0,20.0,77,-99.99,,,-99.99,,2013-05-09 22:12:00,
2013-05-09 17:23:00,63.0,55.0,30.02,North,10,14.0,20.0,77,-99.99,,,-99.99,,2013-05-09 22:23:00,
2013-05-09 17:33:00,63.0,55.0,30.02,North,10,10.0,20.0,77,-99.99,,,-99.99,,2013-05-09 22:33:00,
2013-05-09 17:42:00,63.0,55.0,30.02,North,10,10.0,20.0,77,-99.99,,,-99.99,,2013-05-09 22:42:00,
2013-05-09 17:52:00,63.0,54.0,30.02,NNE,20,14.0,22.0,72,-99.99,,,-99.99,,2013-05-09 22:52:00,
2013-05-09 18:02:00,63.0,54.0,30.02,NNE,20,14.0,22.0,72,-99.99,,,-99.99,,2013-05-09 23:02:00,
2013-05-09 18:12:00,63.0,54.0,30.02,NNE,20,14.0,22.0,72,-99.99,,,-99.99,,2013-05-09 23:12:00,
2013-05-09 18:21:00,63.0,54.0,30.02,NNE,20,14.0,22.0,72,-99.99,,,-99.99,,2013-05-09 23:21:00,
2013-05-09 18:32:00,61.0,54.0,30.03,North,360,14.0,21.0,77,-99.99,,,-99.99,,2013-05-09 23:32:00,
2013-05-09 18:42:00,61.0,54.0,30.03,North,360,14.0,21.0,77,-99.99,,,-99.99,,2013-05-09 23:42:00,
2013-05-09 18:52:00,61.0,54.0,30.03,NNE,20,13.0,17.0,77,-99.99,,,-99.99,,2013-05-09 23:52:00,
2013-05-09 19:01:00,61.0,54.0,30.03,NNE,20,13.0,17.0,77,-99.99,,,-99.99,,2013-05-10 00:01:00,
2013-05-09 19:11:00,61.0,54.0,30.03,NNE,20,13.0,17.0,77,-99.99,,,-99.99,,2013-05-10 00:11:00,
2013-05-09 19:22:00,61.0,54.0,30.03,NNE,20,13.0,17.0,77,-99.99,,,-99.99,,2013-05-10 00:22:00,
2013-05-09 19:32:00,61.0,54.0,30.03,NNE,20,12.0,17.0,77,-99.99,,,-99.99,,2013-05-10 00:32:00,
2013-05-09 19:42:00,61.0,54.0,30.03,NNE,20,12.0,17.0,77,-99.99,,,-99.99,,2013-05-10 00:42:00,
2013-05-09 19:52:00,61.0,54.0,30.03,NNE,20,13.0,18.0,77,-99.99,,,-99.99,,2013-05-10 00:52:00,
2013-05-09 20:01:00,61.0,54.0,30.03,NNE,20,13.0,18.0,77,-99.99,,,-99.99,,2013-05-10 01:01:00,
2013-05-09 20:11:00,61.0,54.0,30.03,NNE,20,13.0,18.0,77,-99.99,,,-99.99,,2013-05-10 01:11:00,
2013-05-09 20:21:00,61.0,54.0,30.03,NNE,20,13.0,18.0,77,-99.99,,,-99.99,,2013-05-10 01:21:00,
2013-05-09 20:32:00,57.0,54.0,30.05,NNE,30,8.0,-999.0,87,-99.99,,,-99.99,,2013-05-10 01:32:00,
2013-05-09 20:42:00,57.0,54.0,30.05,NNE,30,8.0,-999.0,87,-99.99,,,-99.99,,2013-05-10 01:42:00,
2013-05-09 20:52:00,57.0,54.0,30.06,NE,40,7.0,-999.0,87,-99.99,,,-99.99,,2013-05-10 01:52:00,
2013-05-09 21:01:00,57.0,54.0,30.06,NE,40,7.0,-999.0,87,-99.99,,,-99.99,,2013-05-10 02:01:00,
2013-05-09 21:11:00,57.0,54.0,30.06,NE,40,7.0,-999.0,87,-99.99,,,-99.99,,2013-05-10 02:11:00,
2013-05-09 21:21:00,57.0,54.0,30.06,NE,40,7.0,-999.0,87,-99.99,,,-99.99,,2013-05-10 02:21:00,
2013-05-09 21:32:00,55.0,54.0,30.06,North,0,0.0,-999.0,93,-99.99,,,-99.99,,2013-05-10 02:32:00,
2013-05-09 21:42:00,55.0,54.0,30.06,North,0,0.0,-999.0,93,-99.99,,,-99.99,,2013-05-10 02:42:00,
2013-05-09 21:52:00,55.0,54.0,30.07,NNE,30,7.0,-999.0,93,-99.99,,,-99.99,,2013-05-10 02:52:00,
2013-05-09 22:01:00,55.0,54.0,30.07,NNE,30,7.0,-999.0,93,-99.99,,,-99.99,,2013-05-10 03:01:00,
2013-05-09 22:11:00,55.0,54.0,30.07,NNE,30,7.0,-999.0,93,-99.99,,,-99.99,,2013-05-10 03:11:00,
2013-05-09 22:21:00,55.0,54.0,30.07,NNE,30,7.0,-999.0,93,-99.99,,,-99.99,,2013-05-10 03:21:00,
2013-05-09 22:33:00,55.0,54.0,30.08,NE,40,6.0,-999.0,93,-99.99,,,-99.99,,2013-05-10 03:33:00,
2013-05-09 22:43:00,55.0,54.0,30.08,NE,40,6.0,-999.0,93,-99.99,,,-99.99,,2013-05-10 03:43:00,
2013-05-09 22:53:00,54.0,52.0,30.08,NNE,30,7.0,-999.0,93,-99.99,,,-99.99,,2013-05-10 03:53:00,
2013-05-09 23:03:00,54.0,52.0,30.08,NNE,30,7.0,-999.0,93,-99.99,,,-99.99,,2013-05-10 04:03:00,
2013-05-09 23:12:00,54.0,52.0,30.08,NNE,30,7.0,-999.0,93,-99.99,,,-99.99,,2013-05-10 04:12:00,
2013-05-09 23:23:00,54.0,52.0,30.08,NNE,30,7.0,-999.0,93,-99.99,,,-99.99,,2013-05-10 04:23:00,
2013-05-09 23:33:00,54.0,52.0,30.08,North,10,10.0,17.0,93,-99.99,,,-99.99,,2013-05-10 04:33:00,
2013-05-09 23:43:00,54.0,52.0,30.08,North,10,10.0,17.0,93,-99.99,,,-99.99,,2013-05-10 04:43:00,
2013-05-09 23:53:00,54.0,52.0,30.09,North,10,13.0,-999.0,93,-99.99,,,-99.99,,2013-05-10 04:53:00,